[[{"header":{"parameterUnit":"m.s-1","parameterCategory":1,"la1":30.2991,"la2":30.254,"lo1":-89.0895,"lo2":-89.0444,"dy":0.0017,"dx":0.0017,"nx":28,"ny":28,"refTime":"2025-05-17T21:00:00:Z","depth":0,"parameterNumber":2,"parameterNumberName":"U-component_of_WINDS"},"data":[0,0,0,0,0,0,0,0,0,0,0,0,0,0,0,0,0,0,0,0,0,0,0,0,0,0,0,0,0,0,0,0,0,0,0,0,0,0,0,0,0,0,0,0,0,0,0,0,0,0,0,0,0,0,0,0,0,0,0.8278,0.8279,0,0.8385,0.8386,0.8387,0.8434,0.8434,0.8434,0.8433,0.8546,0.8549,0.8552,0,0,0,0,0,0,0,0,0,0,0,0,0,0.8118,0.812,0.8278,0.8279,0.8281,0.8385,0.8386,0.8388,0.8434,0.8434,0.8434,0.8433,0.8545,0.8549,0.8553,0,0,0,0,0,0,0,0,0,0,0,0,0,0.8202,0.8121,0.8278,0.8316,0.8321,0.8384,0.8386,0.8388,0.8434,0.8434,0.8434,0.8433,0.8544,0.8548,0.8553,0.8587,0,0,0.8568,0.857,0,0,0,0,0,0,0,0,0.8197,0.8208,0.8309,0.8314,0.8319,0.8396,0.8371,0.8455,0.8434,0.8391,0.8433,0.8433,0.8497,0.8505,0.8526,0.8593,0.8597,0.8568,0.8571,0.8573,0.8574,0,0,0,0,0,0,0,0.8191,0.8204,0.832,0.8311,0.8317,0.8329,0.8341,0.8387,0.8444,0.8395,0.8398,0.841,0.8499,0.8521,0.8529,0.8599,0.8568,0.8572,0.8575,0.8577,0.87,0.8701,0,0,0,0,0,0,0.8179,0.8198,0.8317,0.8324,0.8256,0.8332,0.8346,0.8371,0.8444,0.8454,0.841,0.8412,0.8513,0.8523,0.8533,0.8578,0.8573,0.8577,0.858,0.87,0.87,0.8701,0,0,0,0,0,0,0.8175,0.8189,0.8313,0.8262,0.8279,0.8335,0.8364,0.8374,0.8396,0.8455,0.8466,0.8422,0.8513,0.8526,0.8573,0.8583,0.8579,0.8584,0.8699,0.87,0.8701,0.8669,0,0,0,0,0,0,0.817,0.8187,0.82,0.8262,0.8281,0.835,0.8365,0.8376,0.8403,0.8407,0.8469,0.8479,0.8514,0.8566,0.8578,0.8589,0.8587,0.8699,0.87,0.87,0.8669,0.8668,0.8667,0,0,0,0,0,0.8164,0.8188,0.8201,0.8215,0.8298,0.8351,0.8362,0.84,0.8404,0.8418,0.8456,0.8478,0.858,0.857,0.8584,0.8597,0.8698,0.8699,0.87,0.867,0.8669,0.8668,0,0,0,0,0,0,0.8126,0.8196,0.8212,0.8255,0.8296,0.8358,0.8377,0.8398,0.844,0.8441,0.8488,0.8502,0.8545,0.8576,0.8565,0.8635,0.8641,0.8645,0.8613,0.8612,0.8611,0.8603,0.8591,0,0,0,0,0,0.8123,0.8158,0.8218,0.8251,0.8271,0.832,0.8345,0.837,0.8416,0.8434,0.8476,0.852,0.8562,0.8589,0.8631,0.8674,0.8689,0.869,0.8689,0.8687,0.8691,0.8716,0.8718,0.8704,0.8704,0.8704,0,0,0.8116,0.8159,0.8179,0.8244,0.8279,0.8316,0.8335,0.8373,0.8401,0.844,0.8487,0.8519,0.8571,0.8617,0.8639,0.8644,0.8697,0.8689,0.8687,0.8691,0.8717,0.8719,0.872,0.8705,0.8705,0.8705,0,0,0.8123,0.8159,0.819,0.8225,0.8277,0.831,0.8318,0.8377,0.8399,0.8447,0.8477,0.8511,0.8583,0.8619,0.8647,0.8667,0.8689,0.868,0.8675,0.87,0.8701,0.8702,0.871,0.8712,0.8682,0.8682,0.8682,0,0.8109,0.8165,0.8204,0.8241,0.8269,0.8305,0.8337,0.8369,0.8433,0.8453,0.8457,0.8547,0.8585,0.8639,0.8644,0.8665,0.8676,0.8673,0.8697,0.8699,0.8701,0.8709,0.8712,0.8681,0.8681,0.8681,0.8681,0,0.8145,0.8183,0.8202,0.8262,0.8293,0.8327,0.8373,0.8399,0.8422,0.8455,0.8503,0.8549,0.8602,0.8616,0.864,0.8674,0.8676,0.8688,0.8695,0.87,0.8708,0.8712,0.8679,0.8679,0.868,0.868,0,0,0.8131,0.8212,0.8218,0.8246,0.8307,0.8338,0.8374,0.8424,0.8446,0.8489,0.8522,0.8581,0.8593,0.8624,0.8652,0.8673,0.8687,0.8683,0.8685,0.8683,0.8729,0.872,0.8723,0.8702,0.8702,0.8703,0.8725,0,0.8147,0.8213,0.8249,0.83,0.8337,0.8371,0.8403,0.8444,0.8476,0.8512,0.8547,0.8589,0.86,0.862,0.8642,0.8681,0.8697,0.868,0.8733,0.8735,0.872,0.8727,0.8718,0.8737,0.8729,0.8729,0.873,0,0.8174,0.8216,0.827,0.8327,0.8344,0.8371,0.842,0.8454,0.8502,0.8524,0.8558,0.8586,0.8627,0.863,0.8688,0.8675,0.8699,0.8721,0.8723,0.873,0.8733,0.8736,0.8743,0.8746,0.8735,0.8735,0.8734,0,0.8159,0.8229,0.8271,0.8293,0.8361,0.8379,0.8409,0.8456,0.8484,0.8527,0.8546,0.8593,0.8619,0.8656,0.8696,0.8695,0.875,0.8757,0.877,0.8769,0.878,0.8779,0.8793,0.8794,0.8794,0.8794,0.8794,0,0.8174,0.8206,0.8265,0.8291,0.8328,0.837,0.8406,0.8438,0.848,0.8513,0.8546,0.8577,0.8627,0.8665,0.8696,0.8739,0.8751,0.877,0.8778,0.8768,0.8765,0.8785,0.8785,0.8795,0.8795,0.8795,0.8795,0,0.8164,0.8205,0.8252,0.8312,0.8328,0.8353,0.8404,0.8431,0.8464,0.8505,0.8518,0.857,0.8615,0.8658,0.872,0.8741,0.8785,0.8795,0.8768,0.8773,0.8784,0.8782,0.8811,0.8817,0.8813,0.8813,0.8813,0,0.817,0.8196,0.8258,0.8282,0.831,0.8349,0.8377,0.842,0.8448,0.8504,0.8525,0.8572,0.8613,0.8684,0.8728,0.8775,0.8787,0.8794,0.8795,0.8783,0.8788,0.8787,0.879,0.8793,0.8793,0.8793,0.8793,0,0.8178,0.8197,0.8236,0.8283,0.8315,0.8354,0.8394,0.8412,0.8463,0.8493,0.854,0.8571,0.8633,0.868,0.8732,0.8764,0.8787,0.8792,0.8798,0.8788,0.8771,0.8781,0.8766,0.8792,0.8792,0.8792,0.8792,0.8792,0.8177,0.8202,0.8249,0.8292,0.8326,0.8363,0.8391,0.8427,0.8466,0.852,0.8543,0.859,0.8638,0.871,0.8741,0.8779,0.8784,0.8792,0.8795,0.8796,0.8794,0.8764,0.8788,0.8789,0.8789,0.8789,0.8789,0,0.8187,0.8219,0.8258,0.8313,0.8347,0.8365,0.841,0.8437,0.8478,0.852,0.8559,0.8613,0.8659,0.8706,0.8755,0.8777,0.8789,0.8788,0.8788,0.8795,0.8786,0.8777,0.8778,0.8778,0.8778,0.8778,0.8778,0.8778,0.8196,0.8239,0.8263,0.8323,0.8356,0.8402,0.8426,0.846,0.8494,0.8553,0.8591,0.8621,0.8665,0.8718,0.8761,0.8774,0.8791,0.8787,0.8803,0.8795,0.8795,0.8796,0.8787,0.8791,0.8791,0.8809,0.8809,0.8809]},{"header":{"parameterUnit":"m.s-1","parameterCategory":1,"la1":30.2991,"la2":30.254,"lo1":-89.0895,"lo2":-89.0444,"dy":0.0017,"dx":0.0017,"nx":28,"ny":28,"refTime":"2025-05-17T21:00:00:Z","depth":0,"parameterNumber":3,"parameterNumberName":"V-component_of_WINDS"},"data":[0,0,0,0,0,0,0,0,0,0,0,0,0,0,0,0,0,0,0,0,0,0,0,0,0,0,0,0,0,0,0,0,0,0,0,0,0,0,0,0,0,0,0,0,0,0,0,0,0,0,0,0,0,0,0,0,0,0,3.9812,3.9812,0,3.982,3.982,3.982,3.9822,3.9822,3.9822,3.9822,3.9826,3.9826,3.9826,0,0,0,0,0,0,0,0,0,0,0,0,0,3.9797,3.9797,3.9812,3.9812,3.9812,3.982,3.982,3.982,3.9822,3.9822,3.9822,3.9822,3.9826,3.9826,3.9826,0,0,0,0,0,0,0,0,0,0,0,0,0,3.9804,3.9797,3.9812,3.9815,3.9815,3.982,3.982,3.982,3.9822,3.9822,3.9822,3.9822,3.9826,3.9826,3.9826,3.9827,0,0,3.9826,3.9826,0,0,0,0,0,0,0,0,3.9803,3.9804,3.9814,3.9814,3.9815,3.982,3.9816,3.9822,3.9822,3.9819,3.9822,3.9822,3.9824,3.9824,3.9825,3.9828,3.9828,3.9826,3.9826,3.9827,3.9827,0,0,0,0,0,0,0,3.9803,3.9804,3.9815,3.9814,3.9815,3.9814,3.9815,3.9817,3.9821,3.982,3.982,3.9821,3.9824,3.9825,3.9825,3.9828,3.9826,3.9826,3.9827,3.9827,3.9833,3.9833,0,0,0,0,0,0,3.9802,3.9804,3.9815,3.9815,3.9809,3.9815,3.9816,3.9818,3.9821,3.9822,3.9821,3.9821,3.9825,3.9825,3.9825,3.9829,3.9827,3.9827,3.9827,3.9833,3.9833,3.9833,0,0,0,0,0,0,3.9802,3.9803,3.9814,3.981,3.9811,3.9815,3.9818,3.9819,3.982,3.9823,3.9823,3.9822,3.9825,3.9825,3.9828,3.9829,3.9827,3.9827,3.9833,3.9833,3.9833,3.9834,0,0,0,0,0,0,3.9802,3.9803,3.9805,3.981,3.9811,3.9817,3.9818,3.9819,3.9821,3.9821,3.9823,3.9824,3.9825,3.9827,3.9828,3.9829,3.9827,3.9833,3.9833,3.9833,3.9834,3.9834,3.9834,0,0,0,0,0,3.9801,3.9803,3.9805,3.9806,3.9813,3.9817,3.9818,3.9821,3.9821,3.9822,3.9824,3.9824,3.9829,3.9828,3.9828,3.9829,3.9833,3.9833,3.9833,3.9834,3.9834,3.9834,0,0,0,0,0,0,3.9796,3.9804,3.9805,3.9809,3.9813,3.9818,3.9819,3.9821,3.9823,3.9823,3.9825,3.9825,3.9828,3.9829,3.9827,3.9832,3.9831,3.9831,3.9831,3.9831,3.9831,3.9831,3.9827,0,0,0,0,0,3.9795,3.98,3.9806,3.9808,3.981,3.9815,3.9816,3.9819,3.9822,3.9823,3.9825,3.9827,3.9829,3.983,3.9832,3.9834,3.9835,3.9835,3.9836,3.9836,3.9836,3.9838,3.9839,3.9834,3.9834,3.9834,0,0,3.9794,3.9799,3.9801,3.9808,3.9811,3.9814,3.9816,3.9819,3.9821,3.9823,3.9826,3.9827,3.983,3.9833,3.9834,3.9833,3.9838,3.9836,3.9836,3.9836,3.9838,3.9839,3.9839,3.9834,3.9834,3.9834,0,0,3.9793,3.9797,3.9801,3.9805,3.981,3.9813,3.9814,3.9819,3.9821,3.9825,3.9826,3.9829,3.9832,3.9834,3.9836,3.9839,3.9839,3.9839,3.984,3.9842,3.9843,3.9843,3.9844,3.9845,3.9839,3.9839,3.9839,0,3.979,3.9797,3.9802,3.9806,3.9809,3.9813,3.9816,3.9819,3.9824,3.9826,3.9826,3.9832,3.9833,3.9837,3.9838,3.9839,3.984,3.9838,3.9842,3.9843,3.9843,3.9845,3.9845,3.9839,3.9839,3.9839,3.9839,0,3.9793,3.9798,3.98,3.9807,3.9811,3.9814,3.9819,3.9822,3.9824,3.9827,3.9831,3.9834,3.9837,3.9838,3.9839,3.9843,3.9842,3.9842,3.9841,3.9844,3.9845,3.9846,3.9839,3.9839,3.9839,3.9839,0,0,3.9787,3.98,3.98,3.9805,3.9812,3.9815,3.9819,3.9825,3.9827,3.9831,3.9834,3.9838,3.9839,3.9841,3.9842,3.9844,3.9847,3.9844,3.9844,3.9845,3.9852,3.9852,3.9853,3.9848,3.9848,3.9848,3.9852,0,3.9788,3.9797,3.9803,3.9809,3.9814,3.9819,3.9822,3.9827,3.983,3.9834,3.9837,3.984,3.984,3.9842,3.9844,3.9847,3.9849,3.9846,3.985,3.985,3.985,3.9854,3.9853,3.9857,3.9853,3.9853,3.9853,0,3.9789,3.9796,3.9803,3.9812,3.9814,3.9818,3.9824,3.9828,3.9833,3.9835,3.9839,3.9841,3.9845,3.9845,3.985,3.9848,3.985,3.9852,3.9852,3.9852,3.9852,3.9854,3.9858,3.9859,3.9854,3.9854,3.9853,0,3.9785,3.9796,3.9802,3.9805,3.9816,3.9818,3.9822,3.9828,3.9831,3.9836,3.9839,3.9843,3.9846,3.9849,3.9852,3.9851,3.9858,3.9857,3.9859,3.9859,3.986,3.986,3.9864,3.9861,3.9861,3.9861,3.9861,0,3.9785,3.979,3.9801,3.9805,3.981,3.9816,3.9821,3.9825,3.9831,3.9835,3.9839,3.9842,3.9847,3.9851,3.9853,3.9858,3.9859,3.986,3.9861,3.986,3.986,3.9861,3.9861,3.9861,3.9861,3.9861,3.9861,0,3.9781,3.9789,3.9796,3.9807,3.9809,3.9813,3.9821,3.9825,3.9829,3.9835,3.9836,3.9842,3.9848,3.9852,3.9858,3.9859,3.9865,3.9865,3.9863,3.9864,3.9866,3.9866,3.9871,3.9873,3.9868,3.9868,3.9868,0,3.9781,3.9785,3.9797,3.9801,3.9806,3.9812,3.9816,3.9823,3.9827,3.9835,3.9838,3.9844,3.9849,3.9857,3.9861,3.9866,3.9867,3.9869,3.9867,3.9867,3.9867,3.9867,3.9868,3.9868,3.9868,3.9868,3.9868,0,3.9779,3.9784,3.9791,3.98,3.9806,3.9812,3.9819,3.9822,3.9829,3.9834,3.9841,3.9845,3.9853,3.9858,3.9864,3.9867,3.9869,3.9869,3.987,3.9869,3.9868,3.987,3.9864,3.9869,3.9869,3.9869,3.9869,3.9869,3.9777,3.9782,3.9792,3.98,3.9806,3.9813,3.9818,3.9824,3.983,3.9838,3.9842,3.9848,3.9855,3.9863,3.9867,3.9872,3.9872,3.9873,3.9873,3.9873,3.9873,3.9868,3.9872,3.9872,3.9872,3.9872,3.9872,0,3.9777,3.9784,3.9791,3.9802,3.9809,3.9812,3.9821,3.9825,3.9832,3.9839,3.9845,3.9853,3.9859,3.9865,3.9871,3.9874,3.9875,3.9876,3.9875,3.9876,3.9873,3.9872,3.9875,3.9875,3.9875,3.9875,3.9875,3.9875,3.9777,3.9786,3.9791,3.9803,3.981,3.9818,3.9823,3.9829,3.9835,3.9844,3.9851,3.9855,3.9862,3.9869,3.9875,3.9876,3.9878,3.9879,3.988,3.9877,3.9876,3.9876,3.9875,3.9879,3.9879,3.9884,3.9884,3.9884]}]]